Find BSAT-3A

NORAD ID: 32019 Int'l Des: 2007-036 Owner: BSAT Country: J operational
HEOCIRCULAR

Live Position

Loading 3D Globe...

About BSAT-3A

Description loading...

Upcoming Passes

Passes for default location (London). Set your location on the main map for personalized predictions.

Altitude History

Loading altitude history...

Two-Line Element Set

1 32019U 07036B 26105.65187720 -.00000235 00000-0 00000-0 0 9992
2 32019 1.4952 89.6038 0002255 117.6227 354.5895 0.99141296 49858
Epoch: Apr 15, 2026 • Age: 7 hours

Current Status

Altitude 36106.8 km
Velocity 3.06 km/s
Sub-Earth Point -0.76°S, 122.21°E
Launch Date Aug 14, 2007
Age 18.6 years
Type other

Technical Details

Classification Payload
Mass 1967.00 kg
Dry Mass 930.00 kg
Total Mass 1967.00 kg
Length 3.80 m
Diameter 1.90 m
Span 14.70 m
Shape Box + 2 Pan
Manufacturer LMCSS
Bus Type A2100A
Phase Status In Orbit
Owner/State BSAT/J

Most Searched